sat.trackr.live / text

‹ back to catalog

STARLINK-36201

NORAD 67164 · 2025-303B

PAYLOAD ACTIVE UNKNOWN

§ Identity

Operator
Country
US
Launch date
2025-12-17
Launch site
AFETR
Launch vehicle
Mass (kg)
RCS (m²)

Purposes: comms

External: N2YO · Heavens-Above · Gunter

§ Orbital elements

Epoch: 2026-05-24T22:58:52.078080Z

Period
94.27 min
Inclination
42.9994°
Eccentricity
0.0001264
Mean motion
15.27576570 rev/d
Perigee alt
482.2 km
Apogee alt
483.9 km
Semi-major
6,861.2 km
B*
5.6994e-4
RAAN
239.6249°
Arg perigee
280.6495°
Mean anomaly
79.4214°
Rev number
2,440

§ Raw data

STARLINK-362011 67164U 25303B   26144.95754720  .00015453  00000+0  56994-3 0  99962 67164  42.9994 239.6249 0001264 280.6495  79.4214 15.27576570 24407

JSON: /api/v1/satellites/67164 · /tle

For live sub-satellite position, see the globe view (requires WebGL).

§ Visibility from observer

Set your observer location to see the next 7 days of passes ≥ 10°. The values pass through the URL so the page stays shareable.

No JS? Fill the form by hand. The geolocation button needs JavaScript.